User: anonymous   Login
Location: Unspecified
(0.0000°N, 0.0000°E)
Time: 07:40:12
(UTC+00:00)
Language:

KEPLER-1 (CASE) - Orbit

View from above orbital plane
View from above orbital plane
View from above satellite
View from above satellite

Ground track
Ground track

The orbit data is extracted from the following two-line orbital elements,

1 43729U 18096L   20223.85100216 +.00001977 +00000-0 +74336-4 0  9992
2 43729 097.4202 298.0413 0016318 297.1557 062.8018 15.28248310094735
Epoch (UTC): 10 August 2020 20:25:26
Eccentricity: 0.0016318
inclination: 97.4202°
perigee height: 470 km
apogee height: 492 km
right ascension of ascending node: 298.0413°
argument of perigee: 297.1557°
revolutions per day: 15.28248310
mean anomaly at epoch: 62.8018°
orbit number at epoch: 9473

The dashed part of the orbit path shows where the satellite is in the earth's shadow,  

DLR